Minot, ND

2:59 AM CDT on June 25, 2017 (GMT -0500)
Minot International

Weather History for KMOT - September, 2012

Change the Weather History Date:

Friday, September 14, 2012

  Actual Average Record
Temperature  
Mean Temperature 56 °F 58 °F  
Max Temperature 75 °F 70 °F 94 °F (1946)
Min Temperature 36 °F 47 °F 25 °F (1964)
Degree Days  
Heating Degree Days 9 8  
Month to date heating degree days 45 78  
Since 1 July heating degree days 58 149  
Cooling Degree Days 0 1  
Month to date cooling degree days 37 23  
Year to date cooling degree days 590 434  
Growing Degree Days 5 (Base 50)    
Moisture  
Dew Point 31 °F    
Average Humidity 49    
Maximum Humidity 79    
Minimum Humidity 19    
Precipitation  
Precipitation 0.00 in 0.05 in 1.72 in (1983)
Month to date precipitation 0.08 0.70  
Year to date precipitation 10.83 14.14  
Sea Level Pressure  
Sea Level Pressure 30.25 in    
Wind  
Wind Speed 4 mph (South)    
Max Wind Speed 12 mph    
Max Gust Speed 14 mph    
Visibility 10 miles    
Events      
T = Trace of Precipitation, MM = Missing Value Source: NWS Daily Summary

Daily Weather History Graph

Daily Weather History Graph

Search for Another Location

Airport or City:

Trip Planner

Search our weather history database for the weather conditions in past years. The results will help you decide how hot, cold, wet, or windy it might be!

Date:

Astronomy

Sep. 14, 2012 Rise Set
Actual Time 7:21 AM CDT 7:58 PM CDT
Civil Twilight 6:49 AM CDT 8:29 PM CDT
Nautical Twilight 6:12 AM CDT 9:07 PM CDT
Astronomical Twilight 5:33 AM CDT 9:46 PM CDT
Moon 5:44 AM CDT (9/14) 6:56 PM CDT (9/14)
Length of Visible Light 13h 39m
Length of Day
12h 37m
Waning Crescent, 2% of the Moon is Illuminated
Sep 14
Waning Crescent
Sep 15
New
Sep 22
First Quarter
Sep 29
Full
Oct 8
Last Quarter

Hourly Weather History & Observations

Time (CDT) Temp. Windchill Dew Point Humidity Pressure Visibility Wind Dir Wind Speed Gust Speed Precip Events Conditions
12:54 AM 48.0 °F - 32.0 °F 54% 30.32 in 10.0 mi West 6.9 mph - N/A   Clear
1:54 AM 43.0 °F 40.3 °F 32.0 °F 65% 30.32 in 10.0 mi SSE 4.6 mph - N/A   Clear
2:54 AM 44.1 °F 41.5 °F 32.0 °F 63% 30.32 in 10.0 mi SSW 4.6 mph - N/A   Clear
3:54 AM 45.0 °F 41.2 °F 32.0 °F 60% 30.31 in 10.0 mi WSW 6.9 mph - N/A   Clear
4:54 AM 43.0 °F 41.3 °F 33.1 °F 68% 30.31 in 10.0 mi SW 3.5 mph - N/A   Clear
5:54 AM 41.0 °F - 33.1 °F 73% 30.31 in 10.0 mi Calm Calm - N/A   Clear
6:54 AM 37.0 °F 34.5 °F 30.9 °F 79% 30.33 in 10.0 mi SSE 3.5 mph - N/A   Clear
7:54 AM 39.0 °F 36.8 °F 33.1 °F 79% 30.35 in 10.0 mi SSE 3.5 mph - N/A   Clear
8:54 AM 45.0 °F 43.5 °F 34.0 °F 65% 30.35 in 10.0 mi South 3.5 mph - N/A   Clear
9:54 AM 52.0 °F - 33.1 °F 49% 30.34 in 10.0 mi Calm Calm - N/A   Clear
10:54 AM 57.9 °F - 33.1 °F 39% 30.32 in 10.0 mi Calm Calm - N/A   Clear
11:54 AM 62.1 °F - 30.9 °F 31% 30.32 in 10.0 mi West 3.5 mph - N/A   Clear
12:54 PM 64.9 °F - 30.9 °F 28% 30.29 in 10.0 mi Calm Calm - N/A   Clear
1:54 PM 68.0 °F - 30.9 °F 25% 30.26 in 10.0 mi South 4.6 mph - N/A   Clear
2:54 PM 71.1 °F - 30.0 °F 22% 30.23 in 10.0 mi SSW 8.1 mph - N/A   Clear
3:54 PM 73.0 °F - 30.0 °F 20% 30.20 in 10.0 mi Calm Calm - N/A   Clear
4:54 PM 73.9 °F - 28.0 °F 18% 30.17 in 10.0 mi SE 6.9 mph - N/A   Clear
5:54 PM 73.9 °F - 28.9 °F 19% 30.16 in 10.0 mi SSE 9.2 mph - N/A   Clear
6:54 PM 72.0 °F - 28.9 °F 20% 30.15 in 10.0 mi SSE 6.9 mph - N/A   Clear
7:54 PM 66.0 °F - 30.0 °F 26% 30.14 in 10.0 mi SSE 6.9 mph - N/A   Clear
8:54 PM 60.1 °F - 30.0 °F 32% 30.13 in 10.0 mi SE 6.9 mph - N/A   Clear
9:54 PM 57.0 °F - 30.9 °F 37% 30.10 in 10.0 mi SE 6.9 mph - N/A   Clear
10:54 PM 55.0 °F - 32.0 °F 42% 30.09 in 10.0 mi SE 5.8 mph - N/A   Clear
11:54 PM 53.1 °F - 33.1 °F 47% 30.06 in 10.0 mi SE 4.6 mph - N/A   Clear